THORAD AGENA D DEB, 42537

Orbit data source: Space-Track

THORAD AGENA D DEB, 42537 is space debris in SSO originally from a launch on Wed, 08 Apr 1970 UTC launched from the Air Force Western Test Range (AFWTR). Debris objects in space refer to the collection of defunct objects orbiting the Earth. Examples of debris include non-operational satellites, rocket bodies, and fragments generated from explosions, collisions, or faulty payload assembly.

Loading next visibility...
Identifier
42537, 1970-025ST
Orbit
SSO
Country
Flag of USUS
Related business
Manufacturer
Unknown
Mission
Spacecraft
Bus & Motor
Unknown
Mass
Unknown
Launch date (UTC)
1970-04-08 (56 years ago)
Launch vehicle
Unknown
Launch site
Air Force Western Test Range (AFWTR)
Object type
Payload
Rocket body
Debris
Shape & HBR
Unknown shape, 0.1 m
Radar Cross Section
Small (<0.1 m²)

Expand to show TLE details & history
Last TLE update: 1 week ago

TLE from 1 week ago
0 THORAD AGENA D DEB
1 42537U 70025ST  26249.45892057  .00000471  00000-0  47298-3 0  9993
2 42537 100.0085 155.3797 0009963  28.2902 331.8789 13.83381256 63888
Epoch: 2026-09-06T11:00Z
TLE epoch observation values (Epoch: 2026-09-06T11:00:50.737Z)
Latitude
-0.00002°
Longitude
4.61456°
Altitude
948.298 km
Speed
7.381 km/s
True Right ascension
10h 21m 31s
True Declination
0° 00' 00"
Sunlit
Object was in daylight at epoch
Visualization orbit readout
Latitude
Unknown
Longitude
Unknown
Altitude
Unknown
Speed
Unknown
Apparent Right ascension
Unknown
Apparent Declination
Unknown
Sunlit
N/A
Visualization observer readout
Local Sidereal Time
02:09:26
Azimuth
Unknown
Elevation
Unknown
Doppler factor
Unknown
Orbital elements
Apogee altitude
956.492 km
Perigee altitude
941.891 km
Semi-major axis
7,327.329 km
Eccentricity
0.001
Inclination
100.0085°
RAAN
155.3797°
Arg. of periapsis
28.2902°
True anomaly
331.82503°
Mean anomaly
331.8789°
Eccentric anomaly
331.85197°
Mean motion
3.46039 °/min
Orbital period
104.03 mins
BSTAR
0.00047298
Loading maneuver chart data...
Computing Atmospheric mass density...

Documentation

Showing up to 5 results
|